Home > Weather > Chester > Past weeks

Flag for United Kingdom Past Weather in Chester, England, United Kingdom — Yesterday and Last 2 Weeks

Now
52 °F

Cool.


Feels Like: 49 °F
Forecast: 53 / 63 °F
Wind: 8 mph from Southwest

Location: Hawarden

Current Time: Jun 29, 2016 at 4:44:02 AM

Latest Report: Jun 29, 2016 at 3:00 AM


Visibility: 25 mi

Pressure: 29.76 "Hg

Humidity: 94%

Dew Point: 50 °F

Location of ChesterLocation

Past Weather in Chester — Graph

°F

Chester Temperature Yesterday

Maximum temperature yesterday: 62 °F (at 1:00 PM)
Minimum temperature yesterday: 49 °F (at 5:00 AM)
Average temperature yesterday: 55 °F

High & Low Weather Summary for the Past Weeks

 TemperatureHumidityPressure
High70 °F (Jun 22, 7:00 PM)100% (Jun 14, 3:00 AM)30.22 "Hg (Jun 14, 3:00 AM)
Low49 °F (Jun 28, 5:00 AM)47% (Jun 21, 4:00 PM)29.32 "Hg (Jun 14, 6:00 PM)
Average59 °F81%29.89 "Hg
* Reported Jun 14 3:00 AM — Jun 29 3:00 AM, Chester, Weather by CustomWeather, © 2016

Note: Actual official high and low records may vary slightly from our data, if they occured in-between our weather recording intervals... More about our weather records

Advertising

Chester Weather History for the Previous 24 Hours

Scroll right to see more
 ConditionsComfort  
Time TempWeatherWind HumidityBarometerVisibility
3:00 AM
Wed, Jun 29
52 °FCool.8 mph94%29.76 "Hg25 mi
2:00 AM51 °FCool.2 mph94%29.77 "Hg28 mi
1:00 AM51 °FCool.3 mph99%29.77 "Hg28 mi
12:00 AM51 °FCool.3 mph99%29.78 "Hg19 mi
11:00 PM
Tue, Jun 28
52 °FCool.3 mph97%29.78 "Hg16 mi
10:00 PM52 °FCool.2 mph97%29.76 "Hg11 mi
9:00 PM54 °FRain showers. Cloudy.1 mph94%29.75 "Hg10 mi
8:00 PM53 °FLight rain. Cloudy.1 mph96%29.76 "Hg6 mi
7:00 PM53 °FLight rain. Cloudy.6 mph95%29.76 "Hg10 mi
6:00 PM55 °FRain showers. Cloudy.6 mph88%29.77 "Hg11 mi
5:00 PM55 °FCool.5 mph86%29.80 "Hg31 mi
4:00 PM55 °FLight rain. Cloudy.8 mph93%29.83 "Hg11 mi
3:00 PM57 °FLots of rain. Cloudy.10 mph82%29.85 "Hg6 mi
2:00 PM60 °FRain showers. Cloudy.13 mph70%29.86 "Hg17 mi
1:00 PM62 °FCool.9 mph69%29.88 "Hg9 mi
12:00 PM61 °FCool.8 mph74%29.90 "Hg19 mi
11:00 AM60 °FCool.8 mph78%29.93 "Hg17 mi
10:00 AM58 °FCool.8 mph84%29.96 "Hg13 mi
9:00 AM57 °FCool.7 mph90%29.97 "Hg10 mi
8:00 AM56 °FRain showers. Cloudy.5 mph94%29.99 "Hg7 mi
7:00 AM54 °FCool.2 mph94%30.00 "Hg11 mi
6:00 AM51 °FCool.6 mph98%30.02 "Hg11 mi
5:00 AM49 °FCool.5 mph97%30.03 "Hg12 mi
4:00 AM51 °FCool.5 mph94%30.03 "Hg15 mi
Weather by CustomWeather, © 2016

See weather overviewHow to use our weather pages